Location: Newark
(25.6108°S, 54.5803°W)
Time: 21:24:21
(UTC+00:00)

Courier 1B - Pass Details

Date: 28 October 2020
Orbit: 962 x 1209 km, 28.3° (Epoch: 24 November)

Event Time Altitude Azimuth Distance (km) Brightness Sun altitude
Rises 08:41:35 0° 261° (W) 4,100 10.2 -3.1°
Reaches altitude 10° 08:44:46 10° 270° (W) 3,113 9.5 -2.4°
Maximum altitude 08:51:32 34° 331° (NNW) 1,805 8.6 -1.0°
Drops below altitude 10° 08:58:00 10° 33° (NNE) 2,959 10.3 0.4°
Sets 09:00:58 0° 42° (NE) 3,873 11.0 1.1°
